Date,TemperatureHighF,TemperatureAvgF,TemperatureLowF,DewpointHighF,DewpointAvgF,DewpointLowF,HumidityHigh,HumidityAvg,HumidityLow,PressureMaxIn,PressureMinIn,WindSpeedMaxMPH,WindSpeedAvgMPH,GustSpeedMaxMPH,PrecipitationSumIn
2013-1-1,57.2,45.5,50.2,53.0,23.9,-99.9,94,68,68,29.95,29.76,11,-167,17,0.04
2013-1-2,54.2,36.8,41.0,53.0,14.7,-99.9,97,74,84,30.00,29.72,16,-202,17,0.17
2013-1-3,42.7,33.1,33.9,38.0,10.3,-99.9,92,67,74,30.06,29.95,9,-183,12,0.02
2013-1-4,52.1,34.0,28.9,35.0,8.3,-99.9,100,58,42,30.12,30.00,8,-172,18,0.01
2013-1-5,53.2,35.6,28.3,35.0,12.0,-99.9,91,58,35,30.20,30.07,6,-137,10,0.00
2013-1-6,47.7,37.5,37.8,46.0,18.0,-99.9,95,74,74,30.09,29.89,7,-167,13,0.00
2013-1-7,52.0,38.7,35.4,44.0,17.4,-99.9,94,64,55,30.26,29.94,17,-137,20,0.00
2013-1-8,62.8,43.8,39.7,52.0,25.2,-99.9,96,70,64,30.25,30.16,8,-136,10,0.00
2013-1-9,69.4,49.3,40.9,58.0,31.0,-99.9,97,73,64,30.24,30.16,6,-140,9,0.00
2013-1-10,59.3,45.2,46.6,53.0,21.9,-99.9,98,61,46,30.33,30.20,21,-147,21,0.00
2013-1-11,70.8,53.3,46.8,64.0,36.8,-99.9,97,75,68,30.25,29.96,20,-124,24,0.13
2013-1-12,75.5,57.2,55.4,67.0,42.9,-99.9,100,80,71,29.99,29.91,9,-114,13,0.01
2013-1-13,76.3,55.0,55.1,65.0,38.3,-99.9,98,77,66,29.98,29.89,10,-135,13,0.01
2013-1-14,77.8,58.0,57.0,66.0,41.5,-99.9,98,76,62,30.00,29.92,12,-125,18,0.00
2013-1-15,63.9,48.7,52.6,62.0,32.2,-99.9,98,79,83,30.01,29.88,10,-146,13,0.06
2013-1-16,75.0,52.2,53.0,67.0,31.7,-99.9,98,73,70,29.88,29.76,20,-170,23,0.00
2013-1-17,68.0,47.1,41.9,64.0,32.1,-99.9,98,82,84,29.81,29.63,23,-133,30,0.22
2013-1-18,47.7,35.6,35.8,41.0,11.0,-99.9,92,58,46,30.34,29.75,20,-157,23,0.00
2013-1-19,61.3,41.1,32.0,46.0,25.4,-99.9,95,68,51,30.32,30.00,7,-78,9,0.00
2013-1-20,65.8,45.0,39.9,46.0,20.9,-99.9,97,60,35,30.00,29.79,10,-140,21,0.00
2013-1-21,63.8,44.8,33.6,47.0,22.8,-99.9,96,61,41,29.89,29.68,15,-126,22,0.00
2013-1-22,52.8,45.6,43.5,37.0,22.6,-99.9,60,46,39,29.82,29.74,9,-46,19,0.00
2013-1-23,41.3,33.3,27.5,23.0,10.4,-99.9,80,44,26,30.20,0.00,10,-15,17,0.00
2013-1-24,44.5,29.8,27.1,36.0,2.7,-99.9,87,46,32,30.32,29.79,19,-119,28,0.00
2013-1-25,34.5,26.8,24.5,32.0,5.4,-99.9,95,62,48,30.33,29.91,12,-134,17,0.29
2013-1-26,33.9,26.1,28.8,32.0,5.2,-99.9,94,74,90,30.20,29.92,9,-190,12,0.00
2013-1-27,41.5,29.7,28.9,30.0,10.3,-99.9,94,67,56,30.39,30.21,15,-133,20,0.00
2013-1-28,60.1,40.1,27.4,57.0,22.9,-99.9,97,75,70,30.33,30.06,10,-137,13,0.01
2013-1-29,74.2,55.3,52.7,61.0,38.7,-99.9,100,74,58,30.06,29.93,12,-114,17,0.00
2013-1-30,74.0,60.3,60.0,65.0,45.4,-99.9,97,76,71,29.96,29.45,25,-95,38,0.00
2013-1-31,69.0,47.4,43.1,65.0,20.2,-99.9,95,49,28,29.87,29.32,28,-118,42,0.04